TimeMST,TemperatureF,Dew PointF,Humidity,Sea Level PressureIn,VisibilityMPH,Wind Direction,Wind SpeedMPH,Gust SpeedMPH,PrecipitationIn,Events,Conditions,WindDirDegrees,DateUTC
12:38 AM,71.6,35.6,27,29.93,4.0,ENE,4.6,-,N/A,,Haze,70,2013-09-30 07:38:00
12:58 AM,71.1,34.5,26,29.91,4.0,NE,4.6,-,N/A,,Haze,50,2013-09-30 07:58:00
1:08 AM,69.8,35.6,28,29.94,8.0,NNE,5.8,-,N/A,,Clear,30,2013-09-30 08:08:00
1:58 AM,67.3,37.4,33,29.91,8.0,North,2.3,-,N/A,,Clear,350,2013-09-30 08:58:00
2:58 AM,68.2,33.3,27,29.90,9.0,North,4.6,-,N/A,,Clear,360,2013-09-30 09:58:00
3:58 AM,66.0,33.4,30,29.90,9.0,NNW,8.1,-,N/A,,Clear,340,2013-09-30 10:58:00
4:58 AM,64.9,34.5,32,29.90,7.0,NNE,2.3,-,N/A,,Clear,30,2013-09-30 11:58:00
5:58 AM,61.9,36.3,39,29.91,8.0,NNE,5.8,-,N/A,,Clear,30,2013-09-30 12:58:00
6:58 AM,62.6,35.6,37,29.91,7.0,North,4.6,-,N/A,,Clear,350,2013-09-30 13:58:00
7:58 AM,70.3,39.7,33,29.93,6.0,NNE,3.5,-,N/A,,Haze,20,2013-09-30 14:58:00
8:48 AM,75.2,41.0,29,29.97,4.0,East,4.6,-,N/A,,Haze,90,2013-09-30 15:48:00
8:58 AM,75.7,40.3,28,29.94,3.0,East,8.1,-,N/A,,Haze,100,2013-09-30 15:58:00
9:58 AM,78.8,40.6,26,29.94,4.0,East,5.8,-,N/A,,Haze,90,2013-09-30 16:58:00
10:38 AM,80.6,41.0,24,29.96,5.0,Calm,Calm,-,N/A,,Haze,0,2013-09-30 17:38:00
10:48 AM,82.4,41.0,23,29.96,4.0,East,3.5,-,N/A,,Haze,80,2013-09-30 17:48:00
10:58 AM,82.2,41.2,23,29.93,4.0,NE,1.2,-,N/A,,Haze,50,2013-09-30 17:58:00
11:28 AM,84.2,41.0,22,29.95,4.0,SSE,2.3,-,N/A,,Haze,160,2013-09-30 18:28:00
11:58 AM,86.2,40.6,20,29.90,4.0,Variable,1.2,-,N/A,,Haze,0,2013-09-30 18:58:00
12:58 PM,89.4,35.6,15,29.87,4.0,South,6.9,-,N/A,,Haze,190,2013-09-30 19:58:00
1:38 PM,91.4,35.6,14,29.87,10.0,Variable,5.8,-,N/A,,Clear,0,2013-09-30 20:38:00
1:58 PM,91.4,35.2,14,29.84,10.0,Variable,6.9,-,N/A,,Clear,0,2013-09-30 20:58:00
2:58 PM,92.8,33.8,12,29.82,10.0,SSW,11.5,-,0.05,,Clear,200,2013-09-30 21:58:00
3:58 PM,93.2,31.8,11,29.80,10.0,SSW,12.7,-,N/A,,Clear,210,2013-09-30 22:58:00
4:58 PM,92.8,31.6,11,29.79,10.0,SW,10.4,-,N/A,,Clear,220,2013-09-30 23:58:00
5:58 PM,91.0,30.2,11,29.78,10.0,SSW,9.2,-,N/A,,Clear,210,2013-10-01 00:58:00
6:58 PM,85.1,34.7,16,29.78,10.0,SSW,5.8,-,N/A,,Clear,210,2013-10-01 01:58:00
7:58 PM,81.3,38.3,21,29.79,10.0,SW,3.5,-,N/A,,Clear,220,2013-10-01 02:58:00
8:58 PM,76.1,36.9,24,29.81,10.0,Calm,Calm,-,N/A,,Clear,0,2013-10-01 03:58:00
9:58 PM,74.7,39.2,28,29.81,10.0,NE,3.5,-,N/A,,Clear,50,2013-10-01 04:58:00
10:58 PM,72.1,37.9,29,29.82,10.0,NNW,6.9,-,N/A,,Clear,340,2013-10-01 05:58:00
11:58 PM,69.4,37.2,31,29.81,10.0,North,6.9,-,N/A,,Clear,350,2013-10-01 06:58:00